Date String (YYYY-MM-DD hh:mm:ss) UTC,Instrument flags,absolute air pressure of the measurement (hPa),sample flow rate (lpm),inlet stack bypass flow (lpm),air temperature of the measurement (°C),ambient temperature measured by the external sensor (°C),aerosol sample conditioner tube jacket temperature (°C),OPC LED temperature (°C),internal box temperature (°C),relative humidity of the measurement (%),span deviation,mass concentration of particles derived from Lorenz-Mie calculation of OPC scattering (μg/m³),mass concentration of particles derived from Lorenz-Mie calculation of OPC scattering (μg/m³),mass concentration of particles derived from Lorenz-Mie calculation of OPC scattering (μg/m³)
DateTimeUTC,F1_M11,P_M11,Q1_M11,Q2_M11,T1_M11,T2_M11,T3_M11,T4_M11,T5_M11,U1_M11,ZSPAN_M11,X2_M11,X0_M11,X1_M11
2023-09-04 01:00:00,SystemResetWarning,0827.8,5.01,000.00,028.3,024.0,000.0,036.6,029.0,32.6,0000.0,0002.89,0004.24,0002.39
2023-09-04 01:01:00,SystemResetWarning,0827.7,5.01,000.00,028.2,024.1,000.0,036.6,028.9,32.7,0000.0,0002.87,0004.13,0002.38
2023-09-04 01:02:00,SystemResetWarning,0827.5,4.99,000.00,028.1,024.5,000.0,036.6,029.1,33.0,0000.0,0002.89,0004.21,0002.36
2023-09-04 01:03:00,SystemResetWarning,0827.3,5.00,000.00,028.1,025.0,000.0,036.6,029.2,33.0,0000.0,0002.89,0004.21,0002.33
2023-09-04 01:04:00,SystemResetWarning,0827.4,5.00,000.00,028.1,025.4,000.0,036.6,029.3,33.4,0000.0,0002.87,0004.23,0002.31
2023-09-04 01:05:00,SystemResetWarning,0827.6,5.00,000.00,028.2,025.8,000.0,036.6,029.4,33.4,0000.0,0002.82,0003.95,0002.27
2023-09-04 01:06:00,SystemResetWarning,0827.7,5.00,000.00,028.2,026.1,000.0,036.6,029.5,33.2,0000.0,0002.82,0003.93,0002.25
2023-09-04 01:07:00,SystemResetWarning,0827.8,5.00,000.00,028.2,026.4,000.0,036.6,029.6,33.3,0000.0,0002.81,0003.98,0002.23
2023-09-04 01:08:00,SystemResetWarning,0827.7,5.00,000.00,028.2,026.6,000.0,036.6,029.7,33.4,0000.0,0002.78,0003.92,0002.22
2023-09-04 01:09:00,SystemResetWarning,0827.8,5.00,000.00,028.3,026.8,000.0,036.6,029.8,32.6,0000.0,0002.76,0003.88,0002.21
2023-09-04 01:10:00,SystemResetWarning,0827.8,5.00,000.00,028.3,026.9,000.0,036.6,029.8,33.7,0000.0,0002.72,0003.82,0002.19
2023-09-04 01:11:00,SystemResetWarning,0827.8,4.99,000.00,028.4,027.1,000.0,036.7,029.9,35.7,0000.0,0002.72,0004.45,0002.19
2023-09-04 01:12:00,SystemResetWarning,0827.8,5.01,000.00,028.6,027.1,000.0,036.7,030.0,35.6,0000.0,0002.75,0005.11,0002.20
2023-09-04 01:13:00,SystemResetWarning,0827.8,4.99,000.00,028.9,025.9,000.0,036.6,029.9,35.4,0000.0,0002.72,0005.11,0002.19
2023-09-04 01:14:00,SystemResetWarning,0827.7,5.01,000.00,029.2,024.5,000.0,036.6,029.5,34.6,0000.0,0002.74,0005.17,0002.20
2023-09-04 01:15:00,SystemResetWarning,0827.7,4.98,000.00,029.3,024.1,000.0,036.6,029.4,34.3,0000.0,0002.71,0005.10,0002.21
2023-09-04 01:16:00,SystemResetWarning,0827.7,5.01,000.00,029.2,024.2,000.0,036.6,029.3,34.1,0000.0,0002.76,0005.33,0002.25
2023-09-04 01:17:00,SystemResetWarning,0827.8,5.01,000.00,029.2,024.6,000.0,036.7,029.3,34.3,0000.0,0002.81,0006.51,0002.28
2023-09-04 01:18:00,SystemResetWarning,0827.8,4.99,000.00,029.3,025.1,000.0,036.8,029.5,34.8,0000.0,0002.78,0006.39,0002.29
2023-09-04 01:19:00,SystemResetWarning,0827.8,5.00,000.00,029.3,025.5,000.0,036.9,029.6,35.3,0000.0,0002.77,0006.38,0002.31
2023-09-04 01:20:00,SystemResetWarning,0827.8,5.01,000.00,029.6,025.8,000.0,037.0,029.8,35.5,0000.0,0002.81,0006.48,0002.30
2023-09-04 01:21:00,SystemResetWarning,0827.9,5.01,000.00,029.9,026.1,000.0,037.1,030.0,34.9,0000.0,0002.85,0006.84,0002.32
2023-09-04 01:22:00,SystemResetWarning,0828.1,4.98,000.00,030.1,026.4,000.0,037.2,030.1,34.7,0000.0,0002.88,0007.75,0002.33
2023-09-04 01:23:00,SystemResetWarning,0828.1,5.00,000.00,030.3,026.6,000.0,037.3,030.2,33.2,0000.0,0002.88,0008.03,0002.34
2023-09-04 01:24:00,SystemResetWarning,0828.1,5.01,000.00,030.4,026.8,000.0,037.4,030.2,32.5,0000.0,0002.94,0008.20,0002.36
2023-09-04 01:25:00,SystemResetWarning,0828.1,5.01,000.00,030.5,027.0,000.0,037.5,030.3,32.5,0000.0,0002.98,0008.26,0002.37
2023-09-04 01:26:00,SystemResetWarning,0828.1,5.00,000.00,030.5,027.2,000.0,037.6,030.3,31.1,0000.0,0002.97,0008.24,0002.38
2023-09-04 01:27:00,SystemResetWarning,0828.1,4.99,000.00,030.5,027.3,000.0,037.8,030.4,30.0,0000.0,0002.97,0008.15,0002.38
2023-09-04 01:28:00,SystemResetWarning,0828.1,4.99,000.00,030.5,026.7,000.0,037.8,030.2,29.3,0000.0,0002.96,0007.58,0002.36
2023-09-04 01:29:00,SystemResetWarning,0828.1,5.00,000.00,030.4,025.2,000.0,037.8,029.7,29.7,0000.0,0002.96,0007.48,0002.35
2023-09-04 01:30:00,SystemResetWarning,0828.0,5.00,000.00,030.3,024.3,000.0,037.7,029.5,30.2,0000.0,0002.99,0007.55,0002.33
2023-09-04 01:31:00,SystemResetWarning,0828.0,5.00,000.00,030.2,024.2,000.0,037.7,029.4,30.4,0000.0,0002.94,0007.54,0002.30
2023-09-04 01:32:00,SystemResetWarning,0827.9,5.01,000.00,030.0,024.5,000.0,037.8,029.4,30.7,0000.0,0002.91,0007.43,0002.29
2023-09-04 01:33:00,SystemResetWarning,0827.9,5.00,000.00,029.9,024.9,000.0,037.8,029.6,30.7,0000.0,0002.90,0006.37,0002.26
2023-09-04 01:34:00,SystemResetWarning,0827.9,4.99,000.00,029.9,025.4,000.0,037.8,029.7,31.0,0000.0,0002.84,0004.48,0002.23
2023-09-04 01:35:00,SystemResetWarning,0827.9,5.00,000.00,029.8,025.8,000.0,037.8,029.8,30.9,0000.0,0002.76,0004.10,0002.21
2023-09-04 01:36:00,SystemResetWarning,0827.9,5.01,000.00,029.8,026.1,000.0,037.8,029.9,30.2,0000.0,0002.68,0003.84,0002.17
2023-09-04 01:37:00,SystemResetWarning,0828.0,5.00,000.00,029.8,026.4,000.0,037.8,030.0,30.3,0000.0,0002.68,0003.96,0002.14
2023-09-04 01:38:00,SystemResetWarning,0828.0,5.00,000.00,029.8,026.6,000.0,037.8,030.1,30.5,0000.0,0002.59,0003.79,0002.10
2023-09-04 01:39:00,SystemResetWarning,0828.0,5.00,000.00,029.8,026.8,000.0,037.8,030.1,30.8,0000.0,0002.54,0003.72,0002.07
2023-09-04 01:40:00,SystemResetWarning,0828.0,5.00,000.00,029.8,027.0,000.0,037.9,030.2,31.7,0000.0,0002.50,0003.65,0002.04
2023-09-04 01:41:00,SystemResetWarning,0828.0,4.99,000.00,029.8,027.1,000.0,037.9,030.2,32.2,0000.0,0002.43,0003.50,0002.01
2023-09-04 01:42:00,SystemResetWarning,0828.0,4.99,000.00,029.8,027.2,000.0,037.9,030.3,31.2,0000.0,0002.44,0003.43,0001.99
2023-09-04 01:43:00,SystemResetWarning,0827.9,4.99,000.00,029.8,026.6,000.0,037.8,030.1,30.2,0000.0,0002.45,0004.01,0001.97
2023-09-04 01:44:00,SystemResetWarning,0827.8,5.00,000.00,029.7,025.3,000.0,037.7,029.8,29.8,0000.0,0002.42,0004.10,0001.95
2023-09-04 01:45:00,SystemResetWarning,0827.9,5.00,000.00,029.6,024.8,000.0,037.6,029.7,30.1,0000.0,0002.44,0004.11,0001.95
2023-09-04 01:46:00,SystemResetWarning,0827.8,5.01,000.00,029.4,025.0,000.0,037.6,029.6,30.1,0000.0,0002.44,0004.13,0001.94
2023-09-04 01:47:00,SystemResetWarning,0827.8,5.01,000.00,029.4,025.3,000.0,037.6,029.7,30.3,0000.0,0002.42,0004.12,0001.95
2023-09-04 01:48:00,SystemResetWarning,0828.0,4.99,000.00,029.3,025.7,000.0,037.6,029.8,30.1,0000.0,0002.40,0003.93,0001.96
2023-09-04 01:49:00,SystemResetWarning,0828.1,5.00,000.00,029.3,026.0,000.0,037.6,029.9,30.1,0000.0,0002.41,0004.04,0001.98
2023-09-04 01:50:00,SystemResetWarning,0828.1,5.00,000.00,029.3,026.3,000.0,037.6,030.0,30.3,0000.0,0002.43,0004.08,0001.98
2023-09-04 01:51:00,SystemResetWarning,0828.1,5.00,000.00,029.3,026.6,000.0,037.6,030.0,30.9,0000.0,0002.46,0004.30,0002.00
2023-09-04 01:52:00,SystemResetWarning,0828.1,5.00,000.00,029.3,026.8,000.0,037.6,030.1,30.7,0000.0,0002.54,0005.71,0002.04
2023-09-04 01:53:00,SystemResetWarning,0828.2,5.00,000.00,029.3,027.0,000.0,037.6,030.2,30.6,0000.0,0002.58,0005.77,0002.08
2023-09-04 01:54:00,SystemResetWarning,0828.2,5.00,000.00,029.3,027.1,000.0,037.6,030.2,30.5,0000.0,0002.57,0005.31,0002.11
2023-09-04 01:55:00,SystemResetWarning,0828.2,4.99,000.00,029.3,027.2,000.0,037.6,030.3,30.2,0000.0,0002.60,0005.02,0002.15
2023-09-04 01:56:00,SystemResetWarning,0828.2,4.99,000.00,029.3,026.3,000.0,037.5,030.0,30.2,0000.0,0002.66,0005.18,0002.17
2023-09-04 01:57:00,SystemResetWarning,0828.2,5.01,000.00,029.2,024.7,000.0,037.4,029.5,30.4,0000.0,0002.72,0005.38,0002.21
2023-09-04 01:58:00,SystemResetWarning,0828.2,5.00,000.00,029.0,024.1,000.0,037.3,029.4,30.4,0000.0,0002.75,0005.38,0002.23
2023-09-04 01:59:00,SystemResetWarning,0828.2,5.02,000.00,028.9,024.2,000.0,037.2,029.3,30.5,0000.0,0002.75,0005.37,0002.23
